Overview Statistics Trail Chart Weather Telemetry Raw packets
 

This is the latest recevied weather packets stored in our database for station/object K5OLV. If no packets are shown the sender has not sent any weather packets the latest 10 day(s).

<< 19 20 21 22 23 24 25 >>
Time Temp. Humidity Pressure Rain* Wind** Luminosity Snow
1788480881 26.67° C 82% 1014.7 hPa 0 mm - 0 W/m² -
1788480575 26.67° C 82% 1014.7 hPa 0 mm - 0 W/m² -
1788480274 27.22° C 82% 1014.7 hPa 0 mm - 2 W/m² -
1788479970 27.22° C 83% 1014.5 hPa 0 mm - 4 W/m² -
1788479666 27.22° C 82% 1014.7 hPa 0 mm - 8 W/m² -
1788479360 27.78° C 82% 1014.4 hPa 0 mm - 12 W/m² -
1788479056 27.78° C 81% 1014.3 hPa 0 mm - 14 W/m² -
1788478752 27.78° C 81% 1014.5 hPa 0 mm - 17 W/m² -
1788478448 27.78° C 80% 1014.1 hPa 0 mm - 22 W/m² -
1788478173 28.33° C 79% 1014.5 hPa 0 mm - 26 W/m² -
1788477843 28.89° C 78% 1014.6 hPa 0 mm - 29 W/m² -
1788477542 28.89° C 78% 1014.4 hPa 0 mm - 35 W/m² -
1788477237 28.89° C 77% 1014.6 hPa 0 mm - 41 W/m² -
1788476933 28.89° C 76% 1014.4 hPa 0 mm - 47 W/m² -
1788476628 28.89° C 76% 1014.4 hPa 0 mm - 57 W/m² -
1788476324 29.44° C 77% 1014.5 hPa 0 mm - 60 W/m² -
1788476020 29.44° C 76% 1014.4 hPa 0 mm - 64 W/m² -
1788475716 29.44° C 79% 1014.5 hPa 0 mm - 70 W/m² -
1788475412 29.44° C 76% 1014.5 hPa 0 mm - 70 W/m² -
1788475108 30° C 76% 1014.7 hPa 0 mm - 101 W/m² -
1788474806 29.44° C 74% 1014.7 hPa 0 mm - 104 W/m² -
1788474501 30° C 73% 1014.4 hPa 0 mm - 115 W/m² -
1788474200 29.44° C 74% 1014.6 hPa 0 mm - 139 W/m² -
1788473895 30° C 74% 1014.6 hPa 0 mm - 111 W/m² -
1788473594 30° C 74% 1014.6 hPa 0 mm - 127 W/m² -

* Rain latest hour (hover to see other rain measurements)
** Current wind speed in m/s (hover to see current wind gust speed)